Location: Campillo
(40.8621°N, 4.2488°W)
Time: 00:49:59
(UTC+00:00)

Cosmos 2154 Rocket - Pass Details

Date: 25 September 2021
Orbit: 965 x 997 km, 82.9° (Epoch: 21 October)

Event Time Altitude Azimuth Distance (km) Brightness Sun altitude
Rises 20:51:43 0° 232° (SW) 3,705 7.3 -30.5°
Reaches altitude 10° 20:55:09 10° 251° (WSW) 2,762 6.8 -31.1°
Maximum altitude 20:59:19 18° 292° (WNW) 2,236 6.6 -31.8°
Drops below altitude 10° 21:03:29 10° 334° (NNW) 2,770 7.0 -32.5°
Sets 21:06:59 0° 353° (N) 3,721 7.5 -33.0°
